Greenville Downtown, SC

4:36 PM EDT on May 28, 2017 (GMT -0400)
Greenville Downtown

Weather History for KGMU - February, 2014

Change the Weather History Date:

Saturday, February 1, 2014

  Actual Average Record
Temperature  
Mean Temperature 44 °F -  
Max Temperature 55 °F 51 °F 71 °F (2017)
Min Temperature 32 °F 34 °F 21 °F (2000)
Degree Days  
Heating Degree Days 22    
Moisture  
Dew Point 24 °F    
Average Humidity 45    
Maximum Humidity 76    
Minimum Humidity 19    
Precipitation  
Precipitation 0.00 in - - ()
Sea Level Pressure  
Sea Level Pressure 30.17 in    
Wind  
Wind Speed 3 mph (WNW)    
Max Wind Speed 7 mph    
Max Gust Speed -    
Visibility 10 miles    
Events      
Averages and records for this station are not official NWS values.
T = Trace of Precipitation, MM = Missing Value Source: NWS Daily Summary

Daily Weather History Graph

Daily Weather History Graph

Search for Another Location

Airport or City:

Trip Planner

Search our weather history database for the weather conditions in past years. The results will help you decide how hot, cold, wet, or windy it might be!

Date:

Astronomy

Feb. 01, 2014 Rise Set
Actual Time 7:27 AM EST 5:58 PM EST
Civil Twilight 7:01 AM EST 6:25 PM EST
Nautical Twilight 6:31 AM EST 6:55 PM EST
Astronomical Twilight 6:01 AM EST 7:25 PM EST
Moon 8:23 AM EST (2/1) 8:24 PM EST (2/1)
Length of Visible Light 11h 23m
Length of Day
10h 30m
Waxing Crescent, 5% of the Moon is Illuminated
Feb 1
Waxing Crescent
Feb 6
First Quarter
Feb 14
Full
Feb 22
Last Quarter
Mar 1
New

Hourly Weather History & Observations

Time (EST) Temp. Windchill Dew Point Humidity Pressure Visibility Wind Dir Wind Speed Gust Speed Precip Events Conditions
12:53 AM 37.0 °F - 15.1 °F 41% 30.17 in 10.0 mi Calm Calm - N/A   Clear
1:53 AM 37.0 °F - 16.0 °F 42% 30.18 in 10.0 mi Calm Calm - N/A   Clear
2:53 AM 32.0 °F - 18.0 °F 56% 30.18 in 10.0 mi Calm Calm - N/A   Clear
3:53 AM 37.0 °F 32.4 °F 14.0 °F 39% 30.18 in 10.0 mi North 5.8 mph - N/A   Clear
4:53 AM 32.0 °F 28.7 °F 15.1 °F 50% 30.17 in 10.0 mi North 3.5 mph - N/A   Clear
5:53 AM 36.0 °F 33.3 °F 15.1 °F 43% 30.18 in 10.0 mi NNE 3.5 mph - N/A   Clear
6:53 AM 37.0 °F 32.4 °F 15.1 °F 41% 30.20 in 10.0 mi North 5.8 mph - N/A   Clear
7:53 AM 37.9 °F 34.4 °F 17.1 °F 43% 30.21 in 10.0 mi North 4.6 mph - N/A   Mostly Cloudy
8:53 AM 41.0 °F 38.0 °F 18.0 °F 40% 30.22 in 10.0 mi NNE 4.6 mph - N/A   Overcast
9:53 AM 45.0 °F 41.2 °F 19.0 °F 36% 30.22 in 10.0 mi NNE 6.9 mph - N/A   Overcast
10:53 AM 46.9 °F - 19.0 °F 33% 30.23 in 10.0 mi NNE 4.6 mph - N/A   Overcast
11:53 AM 50.0 °F - 19.9 °F 31% 30.21 in 10.0 mi North 5.8 mph - N/A   Overcast
12:53 PM 54.0 °F - 18.0 °F 24% 30.18 in 10.0 mi Calm Calm - N/A   Overcast
1:53 PM 55.9 °F - 17.1 °F 22% 30.14 in 10.0 mi Variable 3.5 mph - N/A   Overcast
2:53 PM 55.9 °F - 14.0 °F 19% 30.13 in 10.0 mi South 3.5 mph - N/A   Overcast
3:40 PM 55.4 °F - 19.4 °F 25% 30.12 in 10.0 mi Variable 3.5 mph - N/A   Overcast
3:53 PM 55.9 °F - 24.1 °F 29% 30.13 in 10.0 mi NW 3.5 mph - N/A   Overcast
4:53 PM 54.0 °F - 30.9 °F 41% 30.15 in 10.0 mi SSW 5.8 mph - N/A   Overcast
5:53 PM 52.0 °F - 36.0 °F 54% 30.14 in 10.0 mi SSE 4.6 mph - N/A   Overcast
6:53 PM 51.1 °F - 37.9 °F 61% 30.14 in 10.0 mi South 4.6 mph - N/A   Overcast
7:53 PM 51.1 °F - 37.0 °F 59% 30.14 in 10.0 mi SSW 3.5 mph - N/A   Overcast
8:53 PM 50.0 °F - 37.9 °F 63% 30.14 in 10.0 mi SW 3.5 mph - N/A   Overcast
9:53 PM 50.0 °F - 39.0 °F 66% 30.14 in 10.0 mi SSW 4.6 mph - N/A   Overcast
10:36 PM 48.2 °F - 39.2 °F 71% 30.13 in 10.0 mi SW 5.8 mph - N/A   Scattered Clouds
10:53 PM 46.9 °F - 39.0 °F 74% 30.14 in 10.0 mi SW 4.6 mph - N/A   Clear
11:53 PM 45.0 °F 42.6 °F 37.9 °F 76% 30.14 in 10.0 mi SW 4.6 mph - N/A   Clear